Date,TemperatureHighF,TemperatureAvgF,TemperatureLowF,DewpointHighF,DewpointAvgF,DewpointLowF,HumidityHigh,HumidityAvg,HumidityLow,PressureMaxIn,PressureMinIn,WindSpeedMaxMPH,WindSpeedAvgMPH,GustSpeedMaxMPH,PrecipitationSumIn
2013-2-1,44,43,38,43,41,36,96,93,87,30.43,30.35,6,1,7,0.00
2013-2-2,43,41,36,41,39,35,97,92,86,30.41,30.24,6,1,10,0.00
2013-2-3,47,41,36,43,40,35,100,94,83,30.31,30.18,3,0,6,0.06
2013-2-4,45,42,39,43,41,39,97,94,89,30.18,29.84,7,1,8,0.00
2013-2-5,50,43,40,45,41,38,96,92,78,29.88,29.76,6,1,9,0.24
2013-2-6,46,41,38,42,40,37,99,93,85,29.98,29.67,5,0,7,0.01
2013-2-7,46,40,34,40,36,32,94,86,74,30.21,29.67,12,2,22,0.01
2013-2-8,45,38,30,38,34,28,93,86,73,30.31,30.21,6,2,10,0.00
2013-2-9,43,41,39,41,39,35,100,91,82,30.36,30.26,5,1,8,0.02
2013-2-10,47,42,39,40,38,36,93,86,70,30.39,30.34,6,1,8,0.01
2013-2-11,45,42,40,43,40,37,96,93,88,30.35,30.31,3,0,6,0.02
2013-2-12,48,44,41,44,41,39,94,89,81,30.39,30.24,9,2,18,0.01
2013-2-13,48,44,42,42,40,37,91,84,75,30.49,30.29,8,2,15,0.00
2013-2-14,46,43,41,44,42,40,97,93,88,30.57,30.48,4,0,6,0.10
2013-2-15,44,43,39,43,42,38,98,95,90,30.57,30.18,8,2,10,0.03
2013-2-16,50,44,38,43,39,35,97,85,66,30.19,30.12,19,6,25,0.02
2013-2-17,45,40,34,38,35,31,91,81,72,30.23,30.10,11,3,16,0.00
2013-2-18,44,39,34,38,35,33,93,87,72,30.10,29.72,8,1,9,0.00
2013-2-19,46,40,35,38,36,32,91,86,68,30.00,29.72,9,2,11,0.01
2013-2-20,43,38,33,38,34,30,92,86,78,30.03,29.97,7,2,12,0.01
2013-2-21,45,41,37,41,38,34,92,88,81,30.05,29.97,6,1,11,0.05
2013-2-22,51,41,37,44,38,33,96,89,75,30.02,29.62,17,4,27,0.21
2013-2-23,47,42,38,36,34,31,88,73,59,30.35,29.87,23,8,30,0.04
2013-2-24,47,42,39,40,36,33,92,81,67,30.36,29.83,6,1,8,0.02
2013-2-25,49,43,37,41,34,29,95,70,48,30.29,29.82,23,8,39,0.04
2013-2-26,45,38,32,37,32,27,93,80,65,30.31,30.12,7,2,10,0.05
2013-2-27,45,41,37,40,37,35,94,86,74,30.29,30.17,7,1,10,0.00
2013-2-28,45,42,39,44,40,35,97,94,87,30.27,30.14,7,1,8,0.15